TimeIST,TemperatureF,Dew PointF,Humidity,Sea Level PressureIn,VisibilityMPH,Wind Direction,Wind SpeedMPH,Gust SpeedMPH,PrecipitationIn,Events,Conditions,WindDirDegrees,DateUTC
12:00 AM,66.2,62.6,88,29.92,0.2,Calm,Calm,-,N/A,Fog,Fog,0,2012-11-01 18:30:00
12:30 AM,66.2,62.6,88,29.92,0.2,Calm,Calm,-,N/A,Fog,Fog,0,2012-11-01 19:00:00
1:00 AM,64.4,62.6,94,29.92,0.2,Calm,Calm,-,N/A,Fog,Fog,0,2012-11-01 19:30:00
2:00 AM,64.4,62.6,94,29.92,0.2,Calm,Calm,-,N/A,Fog,Fog,0,2012-11-01 20:30:00
2:30 AM,64.4,62.6,94,29.92,0.2,Calm,Calm,-,N/A,Fog,Fog,0,2012-11-01 21:00:00
3:00 AM,64.4,62.6,94,29.89,0.2,Calm,Calm,-,N/A,Fog,Fog,0,2012-11-01 21:30:00
3:30 AM,64.4,60.8,88,29.89,0.2,Calm,Calm,-,N/A,Fog,Fog,0,2012-11-01 22:00:00
4:00 AM,64.4,60.8,88,29.89,0.2,Calm,Calm,-,N/A,Fog,Fog,0,2012-11-01 22:30:00
4:30 AM,62.6,60.8,94,29.89,0.2,Calm,Calm,-,N/A,Fog,Fog,0,2012-11-01 23:00:00
5:00 AM,62.6,60.8,94,29.89,0.2,Calm,Calm,-,N/A,Fog,Fog,0,2012-11-01 23:30:00
5:30 AM,62.6,60.8,94,29.89,0.2,Calm,Calm,-,N/A,Fog,Fog,0,2012-11-02 00:00:00
6:00 AM,62.6,60.8,94,29.92,0.2,Calm,Calm,-,N/A,Fog,Fog,0,2012-11-02 00:30:00
6:30 AM,62.6,60.8,94,29.92,0.2,Calm,Calm,-,N/A,Fog,Fog,0,2012-11-02 01:00:00
7:00 AM,62.6,60.8,94,29.92,0.2,Calm,Calm,-,N/A,Fog,Fog,0,2012-11-02 01:30:00
7:30 AM,62.6,60.8,94,29.95,0.2,WSW,3.5,-,N/A,Fog,Fog,250,2012-11-02 02:00:00
8:00 AM,62.6,60.8,94,29.95,0.2,West,3.5,-,N/A,Fog,Fog,280,2012-11-02 02:30:00
8:30 AM,64.4,60.8,88,29.95,0.2,West,3.5,-,N/A,Fog,Fog,280,2012-11-02 03:00:00
9:00 AM,64.4,62.6,94,29.98,0.2,West,2.3,-,N/A,Fog,Fog,270,2012-11-02 03:30:00
9:30 AM,66.2,62.6,88,29.98,0.2,WNW,2.3,-,N/A,Fog,Fog,290,2012-11-02 04:00:00
10:30 AM,69.8,60.8,73,29.98,0.4,West,4.6,-,N/A,Fog,Shallow Fog,260,2012-11-02 05:00:00
11:00 AM,71.6,60.8,69,29.98,0.4,WSW,4.6,-,N/A,,Smoke,250,2012-11-02 05:30:00
11:30 AM,71.6,60.8,69,29.95,0.4,WSW,4.6,-,N/A,,Smoke,250,2012-11-02 06:00:00
12:30 PM,75.2,60.8,61,29.92,0.5,WNW,4.6,-,N/A,,Smoke,290,2012-11-02 07:00:00
1:00 PM,77.0,60.8,57,29.92,0.5,West,2.3,-,N/A,,Smoke,270,2012-11-02 07:30:00
1:30 PM,77.0,60.8,57,29.92,0.5,West,3.5,-,N/A,,Smoke,280,2012-11-02 08:00:00
2:00 PM,78.8,60.8,54,29.89,0.5,WNW,3.5,-,N/A,,Smoke,300,2012-11-02 08:30:00
2:30 PM,78.8,60.8,54,29.89,0.5,NW,3.5,-,N/A,,Smoke,310,2012-11-02 09:00:00
3:00 PM,78.8,59.0,51,29.89,0.5,NW,3.5,-,N/A,,Smoke,320,2012-11-02 09:30:00
3:30 PM,78.8,59.0,51,29.86,0.5,WNW,2.3,-,N/A,,Smoke,290,2012-11-02 10:00:00
4:00 PM,78.8,59.0,51,29.86,0.6,WNW,3.5,-,N/A,,Smoke,300,2012-11-02 10:30:00
4:30 PM,78.8,60.8,54,29.86,0.6,West,3.5,-,N/A,,Smoke,270,2012-11-02 11:00:00
5:00 PM,77.0,60.8,57,29.86,0.6,West,3.5,-,N/A,,Smoke,280,2012-11-02 11:30:00
5:30 PM,75.2,62.6,65,29.86,0.6,Calm,Calm,-,N/A,,Smoke,0,2012-11-02 12:00:00
6:30 PM,73.4,62.6,69,29.86,0.4,Calm,Calm,-,N/A,,Smoke,0,2012-11-02 13:00:00
7:00 PM,71.6,60.8,69,29.86,0.4,Calm,Calm,-,N/A,,Smoke,0,2012-11-02 13:30:00
8:00 PM,71.6,60.8,69,29.86,0.4,Calm,Calm,-,N/A,,Smoke,0,2012-11-02 14:30:00
8:30 PM,69.8,59.0,68,29.86,0.4,Calm,Calm,-,N/A,,Smoke,0,2012-11-02 15:00:00
9:00 PM,69.8,59.0,68,29.89,0.2,Calm,Calm,-,N/A,,Smoke,0,2012-11-02 15:30:00
9:30 PM,66.2,62.6,88,29.89,0.2,Calm,Calm,-,N/A,Fog,Fog,0,2012-11-02 16:00:00
10:00 PM,66.2,62.6,88,29.89,0.2,Calm,Calm,-,N/A,Fog,Fog,0,2012-11-02 16:30:00
10:30 PM,66.2,62.6,88,29.89,0.2,Calm,Calm,-,N/A,Fog,Fog,0,2012-11-02 17:00:00
11:00 PM,66.2,62.6,88,29.89,0.2,Calm,Calm,-,N/A,Fog,Fog,0,2012-11-02 17:30:00
11:30 PM,64.4,62.6,94,29.89,0.2,Calm,Calm,-,N/A,Fog,Fog,0,2012-11-02 18:00:00